Regional Weather Roundup
Issued by NWS Kansas City/Pleasant Hill, MO

Home | Current Version | Previous Version | Text Only | Print | Product List | Glossary On
Versions: 1 2 3 4 5 6 7 8 9 10 11 12 13 14 15 16 17 18 19 20 21 22 23 24 25 26 27 28 29 30 31 32 33 34 35 36 37 38 39 40 41 42 43 44 45 46 47 48 49 50
000
ASUS43 KEAX 310310
RWREAX

WEATHER ROUNDUP FOR EASTERN KANSAS AND NORTHWEST MISSOURI
NATIONAL WEATHER SERVICE KANSAS CITY/PLEASANT HILL MO
1000 PM CDT THU JUL 30 2015

KSZ040-057-103>105-MOZ028-029-037-043-310400-
...KANSAS CITY METROPOLITAN AREA...

CITY           SKY/WX    TMP DP  RH WIND       PRES   REMARKS
K.C. INTL      PTCLDY    76  60  57 CALM      30.15R
K.C. DOWNTOWN  CLEAR     78  62  57 NW3       30.14R
LEES SUMMIT    PTCLDY    74  62  66 SE3       30.16R
OLATHE - IXD   CLEAR     71  62  73 SE3       30.16R
OLATHE - OJC   CLEAR     73  61  65 CALM      30.15R
LAWRENCE       CLEAR     68  65  90 CALM      30.15R

$$

MOZ001>008-011>017-020>025-030>033-038>040-044>046-053-054-310400-
...NORTHERN AND CENTRAL MISSOURI...

CITY           SKY/WX    TMP DP  RH WIND       PRES   REMARKS
ST. JOSEPH     CLEAR     73  69  87 CALM      30.14R
MOSBY          CLEAR     72  68  88 CALM      30.14R
WARRENSBURG    CLEAR     73  66  78 CALM      30.15R
WHITEMAN AFB   CLEAR     73  66  77 CALM      30.14R
CLINTON        CLEAR     70  66  88 CALM      30.15R
SEDALIA        CLEAR     75  65  70 CALM      30.16R
WARSAW         NOT AVBL
CHILLICOTHE      N/A     73  69  87 CALM      30.15R
KIRKSVILLE     CLEAR     70  66  87 W5        30.14R

$$

MOZ041-047>049-056>058-063>065-088>090-097-310400-
...EASTERN AND SOUTHERN MISSOURI...

CITY           SKY/WX    TMP DP  RH WIND       PRES   REMARKS
ST. LOUIS INTL NOT AVBL
SPIRIT OF STL  PTCLDY    73  70  90 CALM      30.12R
COLUMBIA       PTCLDY    76  68  76 CALM      30.15R
JEFFERSON CITY PTCLDY    72  66  81 CALM      30.13R
ROLLA          CLEAR     69  62  78 CALM      30.15R HAZE
OSAGE BEACH    CLEAR     70  64  83 CALM      30.15R
SPRINGFIELD    CLEAR     77  63  61 E7        30.16R
BRANSON        PTCLDY    72  64  78 CALM      30.17R
JOPLIN         PTCLDY    75  65  70 E3        30.14R
WEST PLAINS    PTCLDY    70  65  84 CALM      30.17R

$$

IAZ060-094-KSZ022-034>040-054-083-096-NEZ052-066-093-310400-
...KANSAS...SOUTHEAST NEBRASKA AND IOWA...

CITY           SKY/WX    TMP DP  RH WIND       PRES   REMARKS
TOPEKA         CLEAR     75  67  76 CALM      30.14R
MANHATTAN      CLEAR     72  65  78 CALM      30.14R
EMPORIA        CLEAR     73  65  75 SE5       30.16R
CHANUTE        MOCLDY    77  64  64 E5        30.14R
WICHITA        PTCLDY    77  69  76 SE6       30.16R
OMAHA          PTCLDY    76  67  73 SE3       30.12R
LINCOLN        CLEAR     73  61  65 S6        30.14R
FALLS CITY     CLEAR     75  65  70 S5        30.14R
LAMONI         CLEAR     75  67  76 SW6       30.14R
DES MOINES     CLEAR     76  65  68 SW7       30.10R

$$




USA.gov is the U.S. government's official web portal to all federal, state and local government web resources and services.